STARLINK-2025 (47607 NORAD) Tracking and Keplerian Element Data

This shows tracking and keplerian element data for the satellite.

Feedback or suggestion? Click here.




ElementValue
Catalog47607
NameSTARLINK-2025
Epoch Orbit1175
Epoch Day106.25002315
Epoch Year2021
RAAN136.3382
Inclination53.0517
Eccentricity0.0004252
Argument of Perigee16.6282
Mean Anonmoly152.9752
Mean Motion15.62774231
Decay Rate-6.483E-05
L11 47607U 21009BM 21106.25002315 -.00006483 00000-0 -64892-4 0 9990
L22 47607 53.0517 136.3382 0004252 16.6282 152.9752 15.62774231 11754

Live tracking and technical data element details for STARLINK-2025 (NORAD 47607). STARLINK-2025 can be tracked NOW for your location showing map with azimuth and elevation plus other details from your city location.

Track the satellite on the map from your city or location and see movement details for azimuth, elevation, latitude, longitude, range, height, and movement on the map or in text.







IsCatalogInMostPopularTable: catalog: 47607, numindb: 20
Update: records affected: 1



GetName: 47607 STARLINK-2025

Hit Count: updated at: Fri, 16 Apr 2021 11:29:35 GMT